Theta_e
308 310 308 306 307 307 307 311 312 312 314 318 318 314 311 317 323 314 309 311 312 308 306 307 307 306 306 307 307 309 310 311 312 313 313 313 314 313 312 311 311 311 313 314 315 316 317 317 318 318 319 319 320 320 321 321 321 321 321 321 320 320 321 321 320 319 319 320 320 319 318 319 318 318 318 317 317 317 316 315 315 314 314 315 316 315 315
308 308 307 306 307 307 309 311 310 309 312 313 313 310 309 312 314 309 307 309 308 305 305 305 305 304 305 305 307 308 309 310 311 312 312 311 311 311 311 311 310 310 310 310 311 313 313 313 314 315 316 316 318 319 319 319 319 320 321 321 320 321 321 320 319 319 319 319 320 319 318 318 318 318 318 317 316 316 315 315 314 314 314 315 315 314 315
310 309 307 306 308 309 310 311 309 309 311 311 312 310 309 309 307 305 307 308 307 305 303 303 303 302 303 304 304 306 307 308 309 309 309 309 308 308 309 309 309 309 309 309 309 309 310 310 310 310 310 311 312 314 315 316 316 318 319 320 320 320 320 319 319 319 318 318 319 319 318 317 317 318 318 317 315 314 315 316 315 315 316 315 315 315 315
310 308 307 307 310 310 311 312 311 310 312 311 309 307 307 309 307 307 309 309 306 304 303 302 302 301 301 301 301 302 304 306 308 308 307 307 307 307 307 307 308 308 308 308 307 307 308 307 308 307 307 308 308 309 310 310 311 312 314 317 318 319 319 319 319 318 318 317 317 317 318 318 318 317 317 317 316 315 316 317 315 315 316 316 316 316 316
311 310 310 312 314 312 311 311 308 306 307 307 306 304 304 305 307 309 310 307 304 303 303 302 302 301 301 300 301 301 301 303 305 307 306 305 305 305 306 306 307 307 306 306 306 307 307 306 306 306 306 307 307 307 307 307 308 308 309 311 313 316 317 317 317 318 318 318 318 318 319 319 319 318 317 317 316 316 316 316 315 315 315 315 315 315 316
313 311 313 315 315 312 310 307 306 306 306 305 305 304 303 303 305 306 306 304 303 303 302 302 302 300 300 300 300 300 300 300 302 303 303 302 301 302 304 305 306 306 306 306 306 306 306 306 306 306 306 306 306 306 306 306 306 307 308 308 309 312 315 315 315 317 318 318 317 318 318 318 318 318 317 317 317 316 315 314 314 314 314 315 315 315 316
313 310 312 313 312 310 306 303 304 305 303 301 302 302 302 303 304 303 303 303 302 302 301 301 301 300 299 299 299 299 299 299 300 300 300 300 300 300 301 302 304 305 306 306 306 306 306 306 306 306 306 306 306 306 306 306 306 306 307 307 308 310 312 312 313 314 316 316 316 316 317 317 317 317 316 316 316 315 314 314 314 314 315 315 315 315 315
311 309 312 311 308 305 304 304 304 303 302 302 304 303 302 302 303 302 302 301 300 299 300 301 301 301 300 299 298 298 298 298 298 299 299 299 300 300 299 300 301 302 303 304 305 306 306 306 306 306 306 306 306 306 306 306 306 306 306 306 306 308 309 308 309 312 314 315 315 315 315 315 315 315 314 314 313 314 314 314 314 314 314 314 314 313 312
311 312 309 306 306 305 304 305 304 302 301 303 306 305 301 300 300 300 300 300 299 298 299 300 301 301 302 301 299 297 297 298 298 298 299 299 300 300 300 300 300 301 301 302 303 305 305 305 305 305 305 305 305 306 306 306 306 306 306 306 306 306 307 307 308 310 313 313 313 312 312 311 312 312 312 312 312 312 312 313 313 313 313 313 312 310 307
311 313 307 304 307 308 307 307 305 302 301 301 302 304 302 299 298 298 298 299 297 296 297 300 300 302 305 304 300 297 297 298 298 298 299 299 300 300 300 301 301 301 301 301 301 303 304 305 305 305 305 305 305 305 305 306 305 305 305 305 305 306 306 306 307 308 310 311 311 311 310 310 310 310 310 310 309 309 310 310 310 310 309 309 307 305 303
309 310 309 307 308 307 305 305 303 300 299 299 301 306 305 298 296 297 297 296 296 296 297 298 299 302 306 304 299 297 297 298 297 298 299 299 299 299 299 299 299 299 300 300 300 301 302 303 304 304 305 305 305 305 305 306 306 305 304 304 305 305 305 305 305 306 307 308 308 309 309 309 309 308 307 305 305 305 305 305 305 305 305 304 304 304 304
309 309 308 306 305 305 303 303 302 299 298 299 302 309 306 298 296 297 297 296 297 297 297 298 298 301 303 301 298 297 297 298 298 298 299 299 299 298 298 298 298 297 297 298 298 299 300 301 302 302 303 305 305 305 306 306 306 305 304 305 304 304 304 304 304 305 307 307 307 308 308 307 307 307 305 304 303 303 303 302 302 303 303 303 303 303 304
309 310 307 303 303 303 301 300 300 298 299 301 305 307 302 297 296 297 297 297 297 297 297 298 298 298 298 298 297 297 297 298 298 298 298 299 299 298 298 298 297 297 297 297 297 297 298 299 300 301 301 303 304 305 305 306 307 306 306 306 305 305 305 305 305 304 305 306 308 308 307 307 307 307 306 305 305 304 303 303 303 303 303 302 302 303 303
306 306 305 302 302 302 299 298 298 298 301 305 304 301 297 296 297 297 297 297 297 297 297 297 297 297 297 297 297 297 297 297 297 297 297 297 298 298 298 298 297 297 297 297 297 297 297 298 299 299 300 300 301 302 303 304 305 306 306 306 306 306 306 306 305 305 304 305 306 307 307 308 308 308 307 306 306 305 305 305 305 305 305 305 304 304 303
304 304 304 304 304 300 297 299 300 299 301 301 298 296 297 297 297 297 297 297 297 297 298 297 297 297 297 297 297 297 297 297 297 297 297 297 297 297 297 297 297 297 297 297 297 297 297 297 298 298 298 299 299 300 301 302 302 303 304 304 305 306 306 306 305 305 305 305 305 305 305 306 306 307 307 307 307 307 307 307 307 307 307 306 305 304 304
303 304 303 301 300 298 297 299 300 298 298 298 297 297 298 297 297 297 298 298 297 297 297 297 297 297 297 297 297 297 297 297 296 297 296 296 296 296 296 296 296 296 297 296 297 297 297 297 297 297 298 298 298 299 299 300 301 301 302 302 302 303 305 306 305 305 305 305 305 304 304 304 304 305 305 306 307 307 308 308 308 307 306 305 304 303 303
300 301 300 298 297 297 297 298 298 297 298 297 297 298 297 297 298 297 297 297 298 297 297 297 297 297 297 297 297 297 297 297 296 296 296 296 296 296 296 296 296 296 296 296 296 296 296 297 297 297 297 298 298 298 298 299 300 301 301 301 301 302 303 304 304 304 304 304 305 305 305 305 305 304 304 305 306 306 307 307 306 305 304 303 302 302 302
297 298 298 297 297 297 297 297 297 297 298 297 297 297 297 297 297 297 297 297 297 297 297 297 297 297 297 297 296 296 296 296 296 296 296 296 296 296 296 296 296 296 296 296 296 296 296 296 297 297 297 297 298 298 298 298 299 300 301 301 302 302 302 302 302 302 302 303 303 304 305 305 305 305 305 304 304 304 305 305 304 303 303 302 302 302 302
299 299 297 297 297 297 297 297 297 297 297 297 297 297 297 297 297 297 297 297 297 297 297 296 296 297 296 296 296 296 296 296 295 295 295 295 294 294 294 294 295 295 295 295 296 296 296 296 297 297 297 297 297 297 297 297 298 298 299 300 301 301 302 302 302 302 302 302 302 303 303 304 304 304 304 304 304 304 304 304 304 303 302 302 302 302 302
300 299 297 296 297 297 297 297 297 297 297 297 296 297 297 297 297 297 296 296 296 296 296 296 296 296 296 296 296 295 295 295 295 294 294 293 293 293 293 294 294 294 294 294 295 295 295 296 296 297 297 297 297 297 297 297 297 298 298 299 299 300 301 302 302 302 302 302 302 302 302 303 304 304 304 304 304 304 304 304 303 303 302 302 302 302 302
298 297 296 296 296 296 296 296 297 297 297 296 296 297 296 296 296 296 296 296 296 296 296 296 296 296 296 295 295 295 294 294 293 293 292 292 292 293 293 293 293 293 293 293 294 294 295 295 295 296 297 297 297 297 297 297 297 298 298 298 298 299 299 300 301 302 302 302 302 302 303 303 303 303 303 303 304 304 303 303 302 302 301 302 302 302 302
300 299 297 296 296 297 297 296 296 297 296 296 296 296 296 296 296 296 296 296 296 296 296 295 295 295 295 294 294 293 293 292 292 292 292 292 292 292 292 292 292 292 293 293 293 293 294 294 294 295 295 296 297 297 297 297 297 298 298 298 298 298 298 299 299 300 301 301 302 302 302 303 303 303 303 303 303 303 302 302 302 302 301 301 301 301 302
301 299 297 296 296 297 296 296 296 296 296 296 296 296 296 296 296 296 296 295 295 295 295 295 294 293 293 292 292 292 291 291 291 291 291 291 291 291 291 291 291 292 292 292 292 292 292 292 292 293 294 295 296 296 296 296 297 297 298 298 298 298 298 298 298 299 299 300 300 301 301 301 301 302 302 302 302 302 301 302 302 301 301 301 302 302 302
298 296 296 296 297 296 296 296 296 296 296 296 296 296 296 296 296 296 295 295 295 294 294 293 292 292 292 292 292 292 291 291 291 291 290 290 289 289 289 289 290 290 291 291 291 292 292 292 292 292 292 293 294 295 295 296 296 296 297 298 298 298 297 297 298 298 298 299 299 300 300 301 301 301 301 301 301 301 301 301 302 301 301 301 301 302 302
297 296 296 296 296 296 296 296 296 296 296 296 296 296 296 295 295 295 294 294 293 293 292 292 292 292 292 292 292 292 291 291 291 290 290 290 289 289 289 289 290 290 290 290 291 291 292 293 293 293 293 293 293 293 294 295 295 296 297 297 298 298 297 297 297 297 298 298 299 299 299 300 300 301 301 301 301 301 301 301 301 301 301 301 301 302 302
296 296 296 296 296 296 296 296 296 296 296 296 296 296 295 295 295 294 293 293 293 292 292 292 292 292 292 292 292 291 291 291 290 290 290 290 290 290 290 290 291 291 291 291 292 292 293 293 293 293 293 293 293 293 293 293 294 295 295 296 297 297 297 297 297 297 297 298 298 298 299 299 300 300 301 301 301 300 301 301 301 301 301 301 301 301 301
296 296 296 296 295 296 296 296 296 296 296 296 296 295 295 294 293 293 293 293 293 292 292 291 291 291 292 292 291 291 291 290 290 290 289 290 290 290 291 291 291 291 292 292 293 293 293 292 293 293 294 294 294 294 294 294 293 294 294 295 296 296 297 297 297 297 297 297 297 298 298 299 300 300 301 301 300 300 301 301 301 300 301 301 301 301 302
296 296 296 295 295 296 296 296 296 295 295 295 295 294 294 293 292 293 293 292 291 291 290 290 291 291 291 291 291 291 290 290 290 290 290 290 291 291 291 292 292 292 293 293 294 294 293 294 294 295 295 295 295 295 295 294 294 294 294 294 294 295 296 296 297 297 297 297 296 296 296 297 298 299 300 300 301 301 301 301 300 300 300 300 301 301 302
296 296 296 295 295 296 296 296 296 295 295 295 294 294 293 292 292 293 292 291 290 289 289 290 290 291 291 291 291 290 290 290 290 290 290 290 291 292 292 293 293 294 294 294 295 295 295 296 296 296 296 296 296 295 295 295 295 295 295 295 294 294 295 295 295 296 296 296 296 296 296 296 297 298 299 300 301 301 301 301 301 300 300 300 300 301 301
296 295 295 295 295 296 296 296 295 295 295 294 294 293 293 293 293 293 292 291 291 290 289 289 290 290 291 291 291 290 290 290 290 290 290 291 292 293 294 294 294 295 295 296 296 296 296 296 296 296 296 296 296 295 295 295 296 296 296 296 296 295 295 295 295 295 295 296 296 296 296 296 297 298 299 300 301 302 301 302 301 300 300 300 301 301 301
295 295 295 295 295 295 296 296 295 295 295 294 293 293 293 293 293 292 292 292 292 291 290 290 289 289 290 291 290 290 290 290 290 290 291 292 293 294 294 295 295 296 297 297 297 297 296 296 296 296 295 295 295 295 295 296 296 296 296 296 296 296 296 296 295 295 295 295 295 295 296 296 298 299 300 301 301 302 302 301 301 300 300 301 301 300 300
295 295 295 295 296 296 296 295 295 295 295 293 293 293 293 293 293 292 292 293 292 291 291 291 289 289 290 291 290 290 290 290 291 291 292 294 295 295 295 295 296 297 297 297 297 297 296 296 296 296 295 295 295 296 297 297 297 297 297 297 297 297 297 297 296 296 296 296 295 295 296 297 299 300 301 301 301 302 302 301 301 301 301 301 300 299 299
295 295 295 295 296 296 296 295 295 295 294 293 293 293 293 293 293 293 292 293 292 291 291 291 289 289 290 291 290 290 290 291 292 293 294 295 295 295 296 297 297 297 298 298 297 297 296 296 295 295 295 295 296 297 298 299 299 299 299 299 298 298 298 297 297 297 296 296 295 295 295 296 298 300 301 301 301 301 301 301 301 301 301 300 299 297 296
295 295 295 295 295 295 296 295 294 294 294 293 294 294 293 294 293 292 292 292 292 291 291 290 289 289 290 291 290 290 291 291 292 294 294 295 296 296 296 297 297 297 298 298 297 297 296 296 296 295 295 296 297 298 300 300 300 300 300 299 299 298 298 297 297 297 296 296 296 296 296 296 297 299 300 301 301 301 301 300 301 301 299 297 296 295 295
295 295 295 295 294 295 295 295 294 294 294 294 294 294 294 293 293 292 292 292 291 291 291 289 288 289 290 291 291 291 291 292 293 293 294 295 296 296 297 297 297 297 297 297 297 297 297 296 296 296 296 296 297 298 299 300 300 299 299 299 299 298 298 297 297 297 296 296 297 298 298 297 297 298 300 301 300 300 300 300 300 299 297 296 295 296 296
295 295 295 295 294 294 295 295 295 295 294 294 294 294 293 293 292 292 291 291 290 290 289 288 288 289 290 291 291 291 291 292 293 294 294 295 296 296 297 297 297 297 297 297 297 297 297 296 296 296 296 296 297 298 299 300 300 299 299 299 298 298 297 297 297 296 296 297 297 298 298 298 298 299 299 300 300 300 299 299 298 297 296 296 296 296 296
295 295 295 295 295 294 295 295 295 294 294 293 293 293 293 292 292 291 291 289 289 289 288 287 288 289 290 291 292 292 292 293 294 294 295 296 296 296 297 297 297 297 297 297 297 297 297 297 297 297 296 296 297 297 298 299 299 299 299 299 299 298 298 297 297 297 297 298 298 298 298 299 299 298 298 299 299 299 298 296 296 296 296 296 296 296 296
295 295 295 295 295 295 295 294 294 294 293 293 293 293 293 292 291 291 290 289 288 288 288 287 288 289 289 290 292 293 293 293 294 295 295 296 296 296 296 297 297 297 297 296 296 297 297 297 298 297 297 296 296 297 297 298 298 299 299 299 299 299 299 299 299 298 298 298 298 298 298 298 298 297 297 297 297 296 296 296 296 297 296 296 296 296 296
295 295 295 295 295 295 294 293 293 293 292 292 293 293 293 292 291 291 290 288 288 288 288 287 287 288 288 289 292 294 294 294 295 295 296 296 296 296 296 296 296 296 296 296 296 296 296 297 297 298 297 297 297 296 297 297 297 297 298 298 298 298 298 298 298 298 298 297 297 297 297 297 296 296 296 296 296 296 296 296 296 296 296 296 296 296 296
295 295 295 295 295 295 294 293 293 293 293 293 293 293 292 292 291 291 289 288 287 288 288 287 286 287 287 287 290 292 294 294 294 294 294 295 295 295 295 295 295 295 296 296 296 296 296 296 297 297 297 297 297 297 297 297 297 297 297 297 297 297 297 297 297 297 297 297 296 296 296 296 296 296 296 296 296 296 295 295 295 296 296 296 296 296 296
296 295 295 294 294 294 294 293 293 293 293 293 293 292 292 292 291 290 289 287 286 287 288 287 286 286 286 286 287 289 291 293 293 293 293 293 293 293 293 293 294 294 295 296 296 296 296 296 296 296 296 296 297 297 297 297 297 297 297 297 296 296 296 296 296 296 296 296 296 296 296 296 296 296 296 296 296 296 296 296 296 296 296 296 296 296 295
296 296 295 295 294 294 293 293 294 294 294 293 293 292 292 292 291 290 288 286 286 287 288 287 286 285 286 286 286 287 288 289 290 291 291 291 291 291 291 291 291 292 293 295 295 296 296 296 296 296 296 296 296 296 296 296 296 296 297 297 297 297 297 296 296 296 296 296 296 297 297 297 297 297 297 296 297 297 297 297 297 296 296 296 295 294 294
295 296 296 295 295 294 293 293 294 294 294 293 292 292 291 291 291 290 287 285 285 287 287 287 286 285 285 285 286 286 287 287 288 288 289 289 289 289 289 289 289 289 291 292 294 295 295 296 296 296 296 296 296 296 296 296 295 296 296 296 297 297 297 297 297 297 297 297 297 297 297 297 297 297 297 297 297 297 296 296 296 295 295 294 294 294 293
295 296 296 296 296 295 294 294 294 294 294 294 293 292 291 292 291 289 287 285 285 286 286 286 286 285 284 285 285 286 286 287 287 287 287 287 288 288 288 288 288 288 289 289 291 292 293 294 295 295 295 296 296 296 296 296 296 296 295 296 296 296 297 297 297 297 297 297 297 297 297 297 297 297 297 297 296 296 295 295 295 294 294 294 293 293 293
295 296 296 296 296 295 295 295 294 293 293 293 293 292 291 292 291 289 287 286 286 286 285 286 286 285 284 285 285 285 286 286 286 286 287 287 287 287 287 287 287 287 288 288 289 290 290 291 293 294 294 295 295 295 295 295 295 295 295 295 295 296 296 296 296 296 296 296 296 296 296 296 296 296 296 295 295 295 294 294 294 293 293 293 293 292 292
295 295 296 296 296 296 296 295 294 293 293 294 293 292 291 291 291 290 288 287 287 286 286 286 285 285 285 285 285 285 285 286 286 286 286 286 286 286 286 286 287 287 287 287 288 289 289 290 290 291 292 293 294 294 295 295 295 295 295 295 295 295 295 295 295 295 295 295 295 294 294 294 294 294 294 294 294 294 293 293 293 293 292 292 292 291 291
294 295 295 296 296 296 296 295 295 294 293 294 294 293 292 292 292 291 289 288 288 287 286 286 286 286 285 285 285 285 285 285 285 286 285 285 285 285 285 286 286 287 287 287 287 288 288 288 289 289 290 291 292 292 293 293 294 294 294 294 294 294 294 294 294 294 294 294 294 294 294 293 293 293 293 293 293 292 292 292 291 291 291 290 290 290 290
294 295 295 295 296 296 296 296 295 295 294 294 294 294 293 292 292 291 290 289 289 288 287 287 286 286 286 285 285 285 285 285 285 286 285 285 285 285 285 285 286 286 286 287 287 287 287 288 288 288 288 289 289 290 290 291 292 293 293 293 294 293 293 293 293 293 293 292 292 292 291 291 291 290 290 290 290 290 290 289 289 290 290 290 290 291 291
294 294 294 295 295 296 296 296 296 295 294 294 293 293 293 292 292 291 290 289 289 289 289 288 287 286 286 286 285 285 285 285 285 285 285 285 285 285 285 285 285 285 285 286 286 286 287 287 287 287 288 288 288 288 288 289 289 290 291 291 292 292 291 291 291 291 290 290 290 289 289 289 288 288 288 288 289 289 289 289 289 290 290 290 291 291 291
294 294 294 295 295 295 295 296 295 295 295 295 294 293 292 292 292 291 291 290 290 290 290 289 288 287 286 286 286 285 285 285 285 285 285 285 285 285 285 285 285 285 285 285 285 286 286 286 286 287 287 287 287 287 287 288 288 288 289 289 289 289 289 289 289 289 289 289 288 288 288 288 287 287 287 287 287 288 288 288 288 289 289 289 289 290 291
294 294 294 295 295 295 295 295 295 295 295 295 295 295 294 293 292 292 292 291 290 290 290 290 289 288 287 286 286 286 285 285 285 285 285 285 285 285 285 285 285 285 285 285 285 285 285 285 285 286 286 286 286 286 286 287 287 287 287 287 288 288 288 288 288 288 288 287 287 287 287 287 287 287 286 286 286 286 286 286 287 287 287 287 287 288 289
294 294 294 294 295 295 295 295 295 295 295 295 295 296 295 294 293 292 292 291 291 291 291 291 290 289 288 287 287 286 286 285 285 286 286 285 285 285 285 285 285 285 285 285 285 285 285 285 285 285 285 285 285 285 286 286 286 286 286 286 286 286 287 286 286 287 287 286 286 286 286 286 286 286 286 286 286 285 286 286 286 286 286 286 286 287 288
Wind_Speed
4 3 4 7 8 6 5 4 3 3 4 6 6 3 1 4 6 4 2 4 5 2 6 6 7 9 8 9 15 19 19 19 16 14 12 11 9 8 8 9 8 8 8 8 7 7 6 5 4 3 2 1 1 3 5 6 7 9 11 14 17 21 23 22 23 26 27 24 25 29 28 26 28 29 27 25 25 25 23 22 25 24 21 23 25 23 20
5 5 2 7 10 7 5 6 4 5 7 8 6 3 4 9 9 6 7 10 7 3 4 6 9 9 9 15 23 26 26 23 22 22 21 19 16 13 12 11 10 9 8 7 7 7 6 6 5 4 3 2 2 3 4 3 4 6 9 11 14 19 22 22 22 21 21 23 28 31 29 27 27 26 26 26 26 30 30 27 26 25 22 23 25 23 20
2 4 4 7 10 9 8 7 5 4 8 8 7 4 5 9 9 5 8 11 6 4 5 8 10 11 16 23 27 27 26 26 27 28 26 25 23 20 18 15 13 11 10 9 9 9 9 8 7 6 6 4 3 1 2 3 3 5 9 10 11 15 19 21 22 21 21 25 28 26 24 25 24 22 24 25 24 25 26 24 25 24 21 21 22 20 19
2 2 4 7 9 10 9 6 6 5 6 6 4 3 3 5 7 6 7 8 2 4 6 7 10 16 21 22 22 23 25 26 28 29 28 28 26 24 22 20 18 16 15 14 12 11 10 9 7 7 6 5 6 5 4 3 4 2 3 7 10 13 15 16 18 20 22 26 28 24 21 22 22 19 21 22 21 21 22 21 22 21 19 19 19 18 19
2 2 2 3 5 6 3 2 2 2 5 7 6 6 6 4 5 6 4 4 2 3 5 5 8 13 17 18 19 22 24 26 27 27 27 28 27 24 22 20 19 19 18 18 16 14 12 10 9 8 6 5 6 6 6 6 5 6 5 3 5 9 11 12 15 17 19 22 23 21 19 18 17 15 17 18 18 19 19 18 18 18 16 16 15 14 16
2 5 3 3 2 1 3 4 2 3 6 10 11 7 6 6 5 4 4 3 2 3 4 4 6 9 13 17 20 22 24 26 27 26 26 26 25 25 22 19 17 16 15 15 15 14 12 11 9 7 6 5 4 3 4 3 3 3 4 5 5 2 5 9 13 17 19 20 19 18 16 15 14 14 15 16 16 17 16 15 15 15 15 13 11 11 12
2 2 5 4 2 3 0 3 3 5 7 14 16 9 6 6 6 6 6 5 3 4 4 5 9 12 16 19 22 24 24 24 24 23 24 24 23 23 23 20 17 15 13 12 11 11 10 8 7 6 5 5 5 2 3 3 2 1 2 2 3 3 2 4 6 10 13 16 16 14 13 13 14 15 15 16 17 16 14 13 13 13 12 11 11 12 13
2 1 3 2 3 1 2 4 3 3 2 7 12 9 6 6 4 4 5 4 3 5 5 3 5 6 12 18 22 24 23 22 22 21 21 21 20 20 21 20 18 16 15 13 10 9 9 7 5 5 4 5 7 5 3 3 3 3 2 2 2 2 1 2 2 4 6 9 10 11 13 14 15 16 17 17 18 17 15 14 13 13 13 12 12 12 12
3 3 2 2 2 1 1 3 1 2 3 2 4 5 1 4 5 3 4 4 5 6 8 5 3 6 2 11 17 20 20 19 19 17 17 17 17 16 17 16 16 16 15 14 11 9 9 9 8 8 6 4 4 5 5 3 3 3 3 3 4 2 1 1 2 5 7 9 11 12 14 15 16 17 17 17 17 16 15 15 13 13 12 12 12 11 10
3 5 4 2 1 3 5 4 4 3 5 5 2 5 2 3 5 3 6 5 5 6 10 12 4 3 0 4 9 16 18 16 16 16 15 15 16 16 16 16 16 15 15 15 14 11 10 9 10 11 10 8 6 4 5 5 2 3 5 5 5 4 3 2 4 7 9 11 12 13 14 14 14 15 15 15 16 16 15 14 13 13 12 12 11 9 7
3 5 4 3 4 4 5 5 7 8 8 5 1 4 1 3 2 4 8 8 8 8 9 11 8 5 2 2 6 13 16 16 17 17 16 17 17 17 17 18 19 19 18 17 16 15 13 12 12 12 12 11 9 7 6 7 6 1 4 4 5 6 5 3 0 6 11 13 13 14 14 14 13 13 13 13 13 13 13 13 13 12 11 11 9 8 7
2 4 3 2 3 3 3 5 8 12 8 2 5 2 4 3 2 6 10 11 9 10 10 9 7 4 2 3 6 12 14 15 17 18 19 20 20 21 21 21 22 22 22 21 20 19 17 16 16 15 14 14 13 12 11 10 8 6 4 2 2 5 5 6 7 3 8 13 15 15 15 14 13 13 12 11 10 10 10 10 10 10 10 9 8 8 8
2 4 3 1 2 3 3 5 10 13 4 6 4 4 6 5 6 8 11 11 9 8 9 7 4 1 1 4 8 11 13 15 17 18 20 21 22 23 25 26 26 27 26 24 23 21 19 18 18 17 16 16 15 15 15 15 13 11 10 9 6 4 2 3 6 7 5 8 13 14 14 14 14 14 13 11 9 9 9 9 9 9 8 8 7 7 8
3 3 3 1 1 2 6 8 9 10 3 5 3 3 6 8 8 8 8 8 6 5 5 4 3 4 6 8 11 13 15 17 18 20 21 23 24 25 26 27 28 29 29 27 25 23 21 20 19 18 17 17 16 16 16 17 17 16 16 17 16 13 12 10 7 5 6 7 8 11 13 15 16 17 15 12 11 10 11 11 10 10 10 10 9 9 10
2 3 3 3 2 4 10 8 6 7 3 5 6 7 7 7 8 7 6 5 3 2 2 3 5 8 10 11 13 15 16 18 19 20 22 23 25 26 26 27 27 27 28 27 26 25 23 22 21 20 19 19 18 18 19 18 18 18 18 18 20 21 22 19 14 11 10 9 8 9 11 13 14 15 15 15 14 14 14 14 13 13 13 12 12 11 12
1 2 1 2 3 4 8 5 4 5 6 8 9 7 6 5 5 4 3 2 1 2 3 5 7 9 11 13 15 17 18 19 20 21 21 22 24 25 26 27 27 27 28 28 28 26 25 24 23 23 23 23 22 21 21 20 20 21 20 19 20 23 25 25 21 18 16 15 14 13 11 11 12 13 14 15 16 17 17 16 15 14 13 12 12 13 14
2 3 3 4 2 4 12 14 11 10 10 10 7 6 5 4 2 2 2 2 2 3 4 6 8 10 12 14 16 17 19 20 21 22 23 23 24 25 26 27 27 28 29 29 30 30 28 27 25 24 24 25 26 26 23 20 20 22 23 23 23 23 23 24 23 22 22 22 22 21 20 19 20 19 18 17 17 17 17 17 16 15 13 13 13 14 15
4 6 6 6 6 8 12 13 11 10 9 7 4 3 1 1 2 3 3 4 5 5 6 8 10 11 13 15 17 18 20 22 23 24 25 25 25 26 28 28 29 29 30 31 31 32 31 29 28 27 25 24 26 28 27 25 22 21 20 22 25 26 25 25 25 24 24 24 24 24 25 27 27 26 25 24 22 21 21 19 17 16 15 15 16 16 16
3 3 5 6 7 9 10 9 9 8 6 4 3 1 2 3 3 5 6 7 8 9 10 11 13 14 15 16 18 19 21 23 24 26 27 29 29 30 30 30 30 30 31 33 33 34 33 31 30 30 29 27 26 27 27 27 26 25 23 22 22 23 25 27 28 29 29 28 26 24 24 25 27 27 27 27 25 24 23 22 20 19 18 18 18 18 18
1 2 5 6 8 9 8 7 6 5 3 3 3 3 3 4 5 6 7 9 10 12 13 14 15 16 17 17 18 20 21 23 26 28 30 32 32 31 30 30 30 30 32 33 34 36 36 35 33 32 32 30 29 28 28 28 27 28 28 27 25 22 21 22 24 27 30 32 31 29 26 26 28 28 27 26 26 25 24 24 23 20 19 19 19 17 16
2 0 2 4 5 5 4 4 3 3 3 4 4 3 3 5 6 7 9 11 12 13 13 14 15 16 16 18 19 22 25 27 29 30 31 31 32 31 30 29 30 30 32 33 34 36 37 36 36 36 34 33 31 30 29 28 28 28 29 30 30 28 25 22 20 20 23 27 30 31 29 27 28 28 26 24 25 24 24 23 21 18 17 17 17 15 14
0 3 4 6 4 3 5 5 3 4 5 4 4 4 5 6 7 8 9 10 11 12 11 12 13 15 17 19 21 23 25 27 28 29 29 30 30 30 30 30 30 30 31 32 34 36 37 36 36 36 36 35 34 33 31 30 28 28 28 29 30 31 31 29 26 23 20 19 21 24 24 24 25 27 27 26 25 23 21 20 17 15 14 14 14 14 13
4 4 6 7 3 2 3 4 3 3 3 3 4 5 6 7 7 7 8 9 9 10 11 12 14 16 18 19 20 22 24 25 27 28 29 29 30 31 31 31 30 29 29 30 31 33 35 34 34 35 36 36 36 35 34 33 30 29 28 28 30 32 32 32 31 30 28 25 21 19 19 19 20 22 23 23 23 22 20 19 17 15 14 14 14 14 14
3 4 6 5 4 3 3 3 3 3 3 4 6 6 6 6 6 7 7 8 9 10 12 14 15 16 17 18 20 23 25 27 29 29 29 29 30 31 31 29 27 27 27 27 28 29 30 31 32 33 34 35 35 35 35 35 33 32 30 30 31 32 32 32 32 32 31 31 29 26 23 20 19 18 19 18 19 20 21 20 18 15 14 14 14 14 14
3 6 7 5 5 5 5 5 6 5 6 6 7 6 6 6 6 7 8 9 10 12 13 15 16 17 18 19 20 23 26 28 29 29 29 30 29 29 28 27 26 27 28 28 29 28 27 27 28 30 32 32 32 32 33 34 35 36 35 34 33 33 33 33 32 32 31 30 31 31 29 26 23 22 20 19 19 18 18 18 17 15 13 14 14 14 15
4 6 5 3 4 6 6 6 5 5 7 8 6 5 5 6 7 8 8 9 11 13 15 18 20 20 18 17 19 21 24 27 29 29 29 30 28 27 26 26 26 27 27 28 28 27 26 26 27 29 30 30 29 28 29 30 32 35 38 38 37 37 36 34 33 32 31 29 29 28 27 26 25 23 21 21 21 20 18 17 16 15 14 14 14 15 15
4 5 4 3 4 5 5 6 6 6 7 7 5 4 5 6 6 7 8 10 12 15 17 19 20 19 16 15 18 21 24 27 28 28 28 27 26 25 24 24 24 24 24 24 23 21 21 22 24 25 26 25 23 23 23 25 27 31 35 38 39 39 38 37 35 34 32 30 28 27 25 24 23 22 19 19 21 21 20 18 17 15 14 14 15 15 16
6 6 6 5 5 5 5 5 6 6 6 5 4 6 7 6 6 8 9 11 13 16 16 16 16 15 15 16 19 22 25 27 27 27 26 24 23 22 21 21 21 21 20 18 16 15 16 17 19 21 23 22 21 22 22 23 25 27 30 33 36 39 40 40 39 38 36 33 31 29 27 25 24 23 21 20 21 21 20 19 17 15 14 14 15 16 16
8 7 7 6 6 6 5 5 5 5 4 4 6 7 6 6 7 9 10 11 14 15 15 16 16 14 14 16 19 22 25 27 26 25 23 21 19 19 19 18 17 15 13 13 13 13 14 16 17 20 21 21 20 21 22 23 25 26 27 28 30 34 37 39 40 40 39 36 34 31 29 27 26 25 24 23 24 23 21 19 17 15 14 14 15 16 18
9 7 7 7 7 6 6 5 5 4 4 5 6 6 6 7 9 9 9 11 14 16 16 18 19 17 15 17 20 22 24 24 23 21 20 18 17 16 15 14 12 11 11 12 13 14 16 17 18 20 21 20 19 20 21 23 25 27 27 28 28 29 30 31 33 35 37 37 35 32 29 28 28 27 26 26 26 25 22 19 17 16 15 14 15 17 19
8 7 7 7 7 6 6 5 5 5 5 5 6 5 5 7 8 8 9 11 13 15 17 18 20 20 17 17 20 22 22 21 18 16 16 16 14 12 10 10 10 13 14 14 15 16 19 21 22 23 22 21 19 18 18 20 22 25 27 27 28 28 27 26 26 27 30 33 33 31 30 29 28 27 28 28 28 26 23 20 17 16 16 15 16 17 19
5 6 7 7 7 6 5 5 4 5 5 5 5 4 5 6 8 9 11 11 13 15 16 17 20 21 18 17 19 21 20 16 13 11 12 12 10 8 7 8 10 13 14 15 17 19 21 23 25 25 23 20 18 16 14 14 16 19 21 23 23 24 25 24 22 20 22 27 29 30 31 31 29 27 27 29 29 26 23 19 18 17 17 16 17 18 20
5 7 7 7 7 7 6 5 5 5 5 4 3 4 6 8 10 11 11 11 12 14 15 17 21 20 17 16 18 18 15 12 8 7 8 8 6 5 6 8 10 11 13 16 18 20 22 24 26 25 22 19 17 14 11 7 7 9 13 15 17 19 20 21 20 17 17 21 24 26 29 33 31 27 26 29 29 26 22 20 20 18 18 18 19 20 21
6 8 8 6 6 6 6 5 4 3 3 2 2 5 8 9 10 11 10 10 11 12 14 18 20 18 15 15 15 13 11 9 7 6 6 5 3 4 5 6 7 9 12 16 18 20 22 25 27 26 23 20 18 15 11 8 7 5 3 3 5 10 13 15 18 18 18 20 22 21 24 29 30 27 24 24 25 25 25 24 21 20 20 21 22 21 20
8 9 7 4 3 4 4 4 2 1 2 2 4 6 7 8 9 11 10 10 11 12 15 18 17 15 14 14 12 9 6 5 5 5 4 3 1 3 4 6 7 9 12 16 18 20 22 25 28 29 26 22 20 17 12 10 9 8 7 8 8 4 4 9 14 17 19 21 21 19 20 24 26 26 24 22 22 24 25 23 21 21 24 24 23 21 19
9 8 6 4 4 4 4 3 3 3 3 4 6 6 6 7 10 11 11 11 11 12 15 15 14 13 13 12 10 7 5 4 5 5 4 4 3 4 5 6 7 9 13 17 19 20 21 23 27 31 31 28 24 20 15 12 12 12 12 13 14 13 11 13 15 17 19 20 18 17 18 20 22 25 27 25 23 22 22 22 22 24 25 24 23 22 20
8 7 5 5 5 5 5 5 5 5 5 5 5 5 6 9 10 11 11 11 11 11 12 12 11 11 12 11 9 7 5 6 7 8 7 7 6 6 7 7 8 11 14 17 19 20 21 22 24 27 31 33 31 26 21 16 13 13 13 14 15 15 15 15 16 15 16 16 14 14 16 19 21 25 27 26 22 22 23 24 25 25 23 22 21 21 18
7 6 5 6 6 5 6 6 4 4 4 3 4 5 7 9 10 11 12 12 9 8 9 10 9 9 10 10 9 7 7 7 8 9 9 9 9 10 11 12 13 13 14 15 17 18 20 22 23 25 28 31 32 31 28 24 20 16 15 14 14 14 13 14 14 13 12 12 12 13 17 19 21 22 23 23 23 24 26 25 24 23 22 21 20 18 16
6 5 6 7 7 6 7 6 4 3 4 3 4 6 8 9 10 11 12 11 8 6 6 8 7 7 8 9 8 8 7 8 8 9 9 10 10 11 12 13 13 13 12 12 14 16 17 18 21 24 26 27 29 30 30 29 28 27 25 22 20 19 18 18 17 16 15 15 16 18 20 21 23 25 26 26 25 25 23 22 21 21 20 19 17 16 14
6 5 6 8 8 8 7 7 5 3 4 4 6 7 8 8 10 11 11 10 7 5 4 5 6 5 5 6 7 7 7 7 7 7 8 8 9 9 10 11 12 12 11 10 11 13 15 15 17 20 22 24 25 26 27 27 27 28 29 29 28 28 27 27 26 25 24 23 23 23 24 24 25 25 24 23 22 20 19 19 18 18 17 16 15 14 13
7 5 6 7 8 8 9 8 6 4 5 5 5 5 6 8 10 11 11 10 7 4 4 4 5 4 4 4 5 5 5 5 5 5 6 7 8 9 11 13 14 13 12 10 9 10 11 14 16 17 18 19 21 22 24 25 25 24 24 24 24 25 26 26 26 26 26 25 25 24 24 23 22 21 19 19 19 18 17 17 16 15 15 14 13 12 11
8 7 7 7 7 9 10 9 7 6 7 7 5 4 5 7 9 10 10 9 7 4 3 4 5 5 4 4 3 3 3 4 4 4 5 7 9 11 12 13 14 13 12 10 9 9 10 11 13 14 15 15 16 17 19 21 22 22 21 20 19 19 20 20 20 21 21 21 21 20 19 18 17 17 17 17 17 15 14 13 13 13 12 11 11 10 11
9 8 9 8 7 8 10 10 8 7 8 8 7 5 5 7 8 9 9 8 6 4 3 3 4 5 5 4 3 2 2 3 4 5 6 7 9 10 11 12 12 12 12 11 10 10 11 12 12 12 11 11 11 12 13 15 17 18 18 18 17 17 17 17 17 16 16 16 16 16 15 14 14 14 14 14 13 11 11 11 11 11 11 11 10 10 11
9 9 9 9 8 8 8 9 9 9 8 8 8 7 6 6 8 8 8 6 5 4 3 3 3 4 4 4 3 2 2 3 4 5 5 6 7 8 9 10 10 10 11 11 10 11 12 13 13 12 11 10 9 9 9 11 12 13 14 15 14 14 14 14 14 13 12 12 12 11 11 11 11 11 11 10 10 10 9 10 10 10 10 10 10 10 11
9 10 9 8 8 8 8 9 10 10 9 7 7 8 7 6 7 7 6 5 5 4 4 4 4 3 3 3 3 3 3 4 4 5 5 6 7 8 9 8 8 9 9 9 9 10 11 12 12 11 11 10 9 9 9 9 10 10 11 12 12 12 12 12 11 10 9 9 8 8 7 7 7 7 7 7 8 9 9 9 10 10 9 10 10 10 10
10 10 10 9 9 9 8 8 9 11 10 8 8 9 9 8 7 6 5 4 4 4 4 4 4 3 3 3 3 3 3 4 5 6 6 7 8 9 9 9 8 9 9 8 8 9 10 10 11 11 11 10 9 9 9 10 10 9 10 10 10 10 10 10 9 8 8 7 7 6 6 6 6 6 6 7 7 8 8 8 9 9 9 9 10 10 10
11 11 11 11 10 9 8 8 10 12 12 11 10 10 11 11 9 7 6 4 2 3 4 4 4 3 3 3 3 3 3 4 5 6 8 9 10 10 10 10 9 9 8 8 8 8 9 9 9 10 10 10 9 9 10 9 9 9 9 9 9 9 9 8 8 7 7 6 6 5 5 4 5 5 5 5 6 6 6 7 8 8 8 8 8 8 8
12 12 11 11 11 9 9 10 12 14 14 13 11 11 12 12 10 8 7 5 2 2 3 3 3 3 3 3 3 3 3 3 4 5 7 9 10 10 10 10 10 10 9 9 8 8 8 8 8 9 9 9 9 9 9 9 8 8 8 8 8 8 7 7 6 6 5 5 5 5 4 4 4 4 4 4 5 4 4 5 5 4 4 4 4 4 4
12 11 11 11 11 11 10 11 13 15 15 14 12 11 11 13 13 11 9 6 4 2 2 3 3 3 2 3 3 3 2 3 3 4 6 8 9 9 10 10 10 10 10 9 9 9 9 8 7 8 8 8 8 8 8 8 8 8 8 8 8 8 7 7 7 7 6 6 6 6 6 6 6 6 6 6 5 6 6 7 7 7 7 6 5 4 3
12 11 11 11 11 11 11 12 14 15 16 15 13 12 12 13 14 13 11 8 6 4 3 2 2 2 2 2 2 1 1 2 3 4 5 7 8 9 9 10 10 10 10 10 10 10 10 9 8 7 7 7 7 8 8 8 8 8 8 8 8 8 9 9 9 9 8 8 8 8 8 9 8 8 8 7 7 8 8 8 8 8 7 7 6 5 5
13 13 12 11 11 11 11 11 13 15 16 16 15 14 14 14 14 14 13 11 9 6 5 4 3 3 2 1 1 0 0 1 2 3 4 6 7 8 8 9 10 10 9 9 10 10 10 10 9 8 8 7 7 8 7 7 7 7 7 7 8 8 9 10 10 10 10 9 9 10 11 11 10 10 10 11 10 10 10 10 11 10 10 9 8 8 8
13 13 13 12 11 12 12 12 12 14 15 16 17 17 17 16 16 16 16 14 12 10 7 5 4 3 3 2 2 2 2 2 2 2 4 5 6 6 7 8 8 9 9 9 9 10 10 10 10 10 9 9 9 8 8 8 8 8 8 8 8 8 9 9 9 9 9 9 10 10 11 11 11 11 12 12 12 11 12 12 11 11 10 10 10 10 10
Wind_Direction
12 38 92 101 94 89 83 73 55 29 40 73 97 124 150 115 125 154 168 96 91 344 321 340 342 347 4 21 30 39 48 57 67 73 74 78 83 87 91 91 94 102 109 116 119 120 120 117 114 112 117 146 231 253 255 258 252 243 240 236 231 230 231 233 231 223 220 228 229 220 219 223 224 224 225 223 223 229 236 231 224 231 246 246 237 236 243
30 20 76 114 103 96 70 50 51 79 80 77 76 69 77 91 103 126 113 90 71 3 322 341 349 356 25 45 46 47 47 51 62 68 65 65 65 66 71 76 82 88 88 92 99 102 100 92 85 84 92 121 155 187 199 212 230 216 215 227 231 232 234 235 233 226 220 220 220 217 219 225 231 233 231 230 234 238 243 243 235 233 238 235 229 233 241
21 1 45 94 98 100 85 51 26 69 82 66 46 43 70 84 92 111 102 87 63 3 353 0 9 31 49 49 46 46 45 48 59 64 62 61 62 64 67 71 77 80 79 81 86 90 90 82 75 72 62 57 68 131 218 254 267 210 200 215 226 227 230 231 230 226 216 212 217 224 228 231 239 241 233 234 239 236 233 231 229 233 236 231 231 237 240
231 345 75 103 96 88 77 45 7 27 69 73 56 37 42 100 129 125 92 90 92 318 348 6 28 48 53 48 45 46 46 49 57 60 60 59 59 59 62 67 72 74 74 73 75 81 88 88 83 81 78 83 88 82 71 42 14 6 232 235 236 234 234 231 228 227 221 219 226 235 236 232 236 237 232 234 237 229 221 221 226 232 232 230 233 234 234
225 306 83 125 91 74 50 341 352 77 102 109 94 50 29 55 122 126 113 134 195 308 358 23 35 46 52 50 48 49 49 52 56 58 58 57 55 53 53 56 61 65 67 68 71 76 82 83 76 71 75 89 98 96 85 70 54 42 28 345 276 251 243 234 225 224 224 223 224 226 228 231 232 226 223 227 227 220 218 222 228 227 220 219 221 217 222
217 287 354 51 59 132 259 281 245 156 130 112 97 65 29 31 61 101 118 113 76 19 30 58 60 58 58 54 52 53 53 53 54 56 54 51 50 48 47 46 48 51 55 61 68 74 78 81 77 75 80 74 71 111 121 94 83 80 53 26 6 315 227 219 214 213 219 225 226 225 226 227 220 209 205 209 210 210 211 213 214 212 207 204 200 199 215
164 313 38 54 247 218 279 359 57 109 114 104 96 77 38 36 53 75 75 61 44 40 59 93 91 76 64 56 50 48 48 47 48 49 47 44 43 43 42 42 40 36 35 39 48 54 57 65 73 77 89 77 59 83 127 102 72 90 114 60 29 45 136 175 195 205 213 220 223 221 213 203 197 193 190 189 191 195 196 193 191 191 190 190 191 201 218
147 87 73 145 214 191 30 359 38 107 108 87 85 64 16 8 26 71 78 59 33 41 53 112 140 96 57 50 46 42 41 40 39 40 39 37 36 35 35 36 34 30 25 19 15 10 6 10 25 32 55 72 58 55 85 113 104 94 121 132 64 37 107 132 157 187 188 187 186 180 176 177 179 181 181 180 183 186 186 183 182 181 183 191 201 218 237
147 120 97 111 107 127 223 289 285 193 267 302 103 101 19 344 355 34 99 75 41 45 40 32 205 210 14 30 29 28 30 33 31 30 29 25 22 19 18 19 21 21 19 14 3 346 341 340 337 339 347 13 34 38 43 58 109 110 114 121 108 104 210 161 166 183 182 181 178 172 171 176 180 182 183 185 187 190 192 194 196 198 203 215 226 237 249
113 102 98 96 126 215 220 239 267 292 299 277 161 118 113 342 358 49 118 95 61 64 45 32 42 182 46 1 354 4 12 15 13 12 11 8 3 359 357 355 355 356 357 358 354 344 338 328 316 319 322 318 317 335 359 1 23 110 108 101 101 118 153 176 198 202 201 199 197 192 189 190 191 194 199 203 205 207 209 210 212 215 221 227 230 235 247
113 119 142 167 188 225 240 245 277 314 311 274 133 88 102 293 357 95 111 93 74 79 62 45 55 80 72 279 312 345 354 355 355 353 350 350 349 347 345 343 342 341 339 338 336 333 332 324 313 309 304 300 299 290 295 313 313 259 132 98 73 86 97 77 90 220 219 220 220 217 214 216 219 219 218 215 212 213 213 213 213 215 217 219 224 235 253
151 141 151 165 192 232 253 244 290 327 327 176 117 104 240 237 126 108 101 89 77 73 67 59 68 94 157 249 311 336 339 336 336 332 330 332 331 330 331 329 328 327 325 323 320 319 320 319 316 313 301 289 285 279 271 275 284 274 237 236 48 79 72 34 15 319 237 227 228 232 234 236 236 226 217 212 210 211 212 211 213 216 220 225 234 247 257
65 112 111 61 234 254 289 287 322 344 7 145 147 221 213 168 133 114 94 87 78 62 56 58 65 82 274 300 315 325 325 321 318 316 316 316 315 315 316 315 315 315 313 313 312 309 309 306 304 307 304 293 284 279 270 260 259 258 249 246 238 203 215 323 346 340 301 241 225 224 227 230 226 218 217 221 223 223 220 217 218 221 226 236 248 260 268
31 94 105 82 215 309 329 320 340 6 50 175 194 182 155 133 126 117 94 87 80 53 41 37 12 327 320 315 311 313 314 311 310 309 308 307 304 302 302 303 305 305 303 303 302 299 297 296 293 293 294 291 285 282 276 268 264 260 254 252 250 242 240 247 256 276 287 268 243 226 217 214 212 211 216 221 223 226 228 229 234 239 246 255 262 269 277
40 77 81 108 161 325 333 323 336 12 46 164 146 124 123 120 117 114 107 101 81 34 351 335 324 315 314 311 308 309 307 304 303 301 299 300 299 298 298 298 299 299 298 297 295 292 289 287 285 284 284 282 280 277 274 271 269 265 260 258 259 255 250 246 242 238 239 248 262 257 240 228 220 217 220 221 219 219 223 227 234 241 248 256 264 272 282
68 99 87 149 206 324 7 55 102 73 92 131 134 118 116 122 118 115 128 149 184 284 292 303 307 305 307 307 307 307 306 305 304 302 300 299 298 296 296 296 296 297 296 294 293 291 288 284 281 280 279 278 276 272 271 271 269 265 261 258 259 258 255 251 250 250 245 241 242 242 240 245 245 238 231 225 218 215 217 223 229 236 245 257 268 279 287
64 102 128 147 157 58 67 87 107 109 106 116 121 118 124 136 153 195 209 214 246 272 293 301 302 302 304 305 306 306 306 306 306 305 304 302 299 297 296 295 294 294 293 293 291 289 287 285 282 279 276 275 273 270 268 270 269 266 262 259 257 257 255 251 251 256 257 255 250 243 238 247 257 258 250 240 231 225 225 228 234 243 254 266 274 279 284
85 83 117 139 126 101 94 97 107 113 116 122 124 125 150 234 268 267 279 293 297 304 309 307 306 307 305 304 305 305 305 305 305 304 303 302 301 300 298 296 296 294 291 290 288 286 284 283 282 280 275 271 271 269 266 265 263 262 261 259 256 254 252 249 246 248 254 259 261 255 248 249 255 257 255 252 246 240 237 237 243 255 266 274 277 279 281
123 111 153 167 147 131 124 119 122 125 130 146 164 231 284 291 288 284 291 298 301 306 309 309 308 308 307 306 305 303 303 303 304 304 303 303 303 302 301 299 297 294 291 288 286 284 281 278 278 278 275 271 269 268 266 263 259 257 257 258 256 253 251 249 247 247 251 255 258 258 255 252 250 249 247 247 245 242 241 243 251 262 271 274 274 275 278
129 159 171 168 155 150 139 127 135 144 144 172 220 255 274 278 276 279 289 300 303 305 306 307 307 307 306 305 304 305 306 306 306 306 305 305 305 304 303 301 298 295 291 288 286 284 281 279 277 276 274 272 270 268 265 263 260 257 255 256 256 254 252 250 248 246 248 249 250 252 252 249 245 242 240 241 242 241 242 246 253 260 266 267 266 268 272
28 48 169 147 147 172 176 153 158 180 176 192 222 237 253 265 273 283 294 300 302 303 304 304 304 303 303 303 305 306 306 305 305 306 305 305 304 302 300 299 297 294 291 288 286 284 282 281 279 276 272 270 269 269 267 265 262 260 257 255 255 255 254 253 249 246 244 244 243 243 243 241 240 238 237 238 239 238 239 244 248 251 257 261 264 266 268
270 240 188 152 150 220 223 201 196 197 186 195 228 249 268 279 284 291 297 298 299 302 303 304 304 303 303 305 306 306 306 306 306 307 306 305 304 303 302 300 295 291 288 286 284 282 281 280 279 276 272 268 266 266 266 265 264 262 259 256 255 254 253 252 251 250 248 244 237 233 231 231 233 235 236 235 234 235 238 240 240 243 250 257 260 262 261
207 214 182 169 186 247 208 180 188 204 210 251 278 280 288 297 295 295 298 299 301 305 307 309 311 310 310 312 311 309 310 312 312 312 313 311 309 308 307 304 299 294 290 288 286 283 282 282 280 276 272 268 264 262 262 262 262 260 256 254 254 253 253 253 252 252 252 251 247 241 236 236 236 237 236 234 233 235 236 236 235 239 243 246 249 253 256
161 172 176 194 232 244 220 229 258 268 279 296 303 304 306 305 301 302 306 309 312 316 316 317 318 316 313 312 311 312 315 317 317 317 315 312 311 310 309 307 305 303 301 298 295 291 288 286 284 280 277 273 269 265 261 258 258 257 254 252 250 251 252 252 253 253 253 253 252 250 250 252 252 246 238 235 236 234 229 227 229 233 236 239 243 248 253
171 182 187 208 237 242 258 278 285 289 298 307 314 316 312 310 313 317 322 324 325 324 322 321 321 319 313 309 310 314 316 316 317 317 315 313 313 313 311 310 310 309 307 304 302 299 297 293 289 285 281 278 275 272 267 260 255 252 251 250 249 249 249 249 250 250 251 251 251 251 250 250 249 249 247 245 245 238 224 217 221 227 233 240 243 245 250
174 185 195 224 240 243 266 288 291 291 302 313 321 319 315 325 329 326 325 327 328 326 321 319 320 319 314 310 313 316 317 317 318 318 316 316 317 317 316 315 313 310 309 307 305 303 300 295 291 288 285 282 281 279 275 269 261 254 250 249 248 248 247 247 246 246 246 247 247 248 248 244 241 245 248 246 244 240 229 223 225 229 235 240 241 243 247
200 213 228 243 241 245 271 295 304 306 310 316 322 323 323 328 330 326 323 323 324 323 319 318 319 318 314 314 318 320 320 320 320 319 318 319 321 322 321 318 315 314 315 314 311 307 302 297 295 293 292 292 289 283 276 271 265 259 253 250 250 249 248 246 244 242 241 242 241 241 239 235 232 234 234 230 228 230 231 233 236 237 238 239 241 243 244
235 251 260 263 265 270 284 299 308 312 315 319 320 319 319 323 330 332 330 329 328 327 325 327 329 324 317 320 325 327 325 324 322 321 323 325 327 327 326 324 323 322 321 320 320 318 315 310 306 302 300 299 294 285 277 271 266 261 256 252 250 249 248 247 245 242 239 238 239 238 235 231 229 230 231 228 226 228 233 237 239 240 240 239 239 238 235
248 260 269 277 282 285 288 297 303 303 302 308 314 317 320 328 334 333 332 335 340 341 341 343 343 334 325 327 331 330 328 326 325 325 327 329 332 334 334 332 330 329 328 333 340 340 334 327 318 311 306 301 292 282 275 269 265 263 261 258 254 250 248 246 245 243 240 237 237 236 233 228 224 226 230 232 231 231 232 232 233 237 239 236 233 230 223
248 258 276 287 287 282 280 286 291 281 279 302 316 316 313 317 321 323 326 332 340 346 348 348 346 342 336 335 335 332 329 327 326 327 330 334 340 343 340 336 343 356 3 5 4 359 349 340 331 325 320 312 300 287 275 266 260 258 258 259 258 256 252 248 245 243 240 237 235 233 229 223 220 220 222 225 227 227 226 227 231 234 233 231 230 228 220
238 256 283 290 280 270 269 275 273 260 272 309 323 315 305 308 313 321 327 328 333 342 346 344 343 343 340 337 335 333 332 331 329 329 333 339 344 344 338 342 5 19 20 14 8 2 355 348 342 338 333 323 310 298 285 272 263 258 255 254 255 254 253 250 246 241 236 232 229 226 220 217 216 216 216 219 221 220 218 220 225 228 226 224 223 221 214
232 265 285 279 263 253 255 265 259 248 265 303 322 323 320 319 318 326 331 327 328 337 341 339 338 340 340 337 336 335 334 333 331 331 336 341 341 339 347 13 27 25 17 10 6 4 358 351 348 347 343 334 324 316 303 283 269 262 257 254 251 249 246 243 240 236 229 224 221 217 213 212 212 214 216 216 214 211 212 217 220 219 218 218 215 209 205
258 283 289 273 254 244 240 241 245 252 267 291 321 333 328 319 315 322 329 324 324 333 336 333 335 338 339 338 339 337 335 336 340 344 348 348 339 343 14 36 35 25 18 13 11 8 3 357 355 356 356 350 344 342 339 324 296 275 264 257 252 246 240 232 227 223 216 210 208 208 208 209 210 213 218 216 208 204 210 217 215 211 210 208 202 195 192
296 301 301 285 261 246 232 223 231 262 282 298 328 330 324 314 311 318 324 321 321 328 328 327 332 339 341 341 343 340 337 346 3 12 16 12 349 351 23 35 29 25 24 21 18 17 16 11 7 8 11 10 7 9 19 24 11 345 302 259 245 243 236 222 212 208 200 193 193 198 206 210 211 211 214 215 211 207 208 208 204 201 198 192 185 182 183
308 302 297 279 245 221 205 204 229 305 332 334 327 320 313 309 312 318 322 319 318 320 320 323 332 341 342 344 348 348 350 11 31 39 51 65 33 6 20 22 22 29 33 28 24 24 27 26 23 22 25 27 25 26 37 44 39 41 63 83 88 102 174 186 187 189 184 180 184 192 199 205 208 209 208 211 213 209 203 196 193 192 188 180 177 179 182
304 298 283 246 206 183 185 218 256 268 279 310 322 316 310 317 322 322 321 319 316 313 315 322 336 346 348 353 1 4 15 58 76 80 93 101 76 34 18 10 18 32 36 34 31 28 28 32 34 33 35 39 39 37 43 51 54 59 71 84 91 97 110 130 150 165 171 175 184 196 198 199 204 205 202 200 201 199 192 184 184 185 182 178 177 179 178
303 293 256 222 203 195 210 239 256 256 262 292 314 314 317 328 329 324 323 322 316 309 314 326 344 355 357 4 18 23 32 67 87 91 90 85 69 49 39 37 42 43 38 35 34 29 27 31 37 39 42 47 48 48 48 53 59 65 72 82 91 99 108 120 134 151 166 177 191 200 198 196 200 200 194 188 184 181 178 177 177 176 174 173 174 174 174
303 284 239 216 213 225 234 237 243 248 256 281 307 311 318 328 329 327 328 325 313 303 313 328 345 358 0 9 30 47 54 64 77 82 81 75 66 56 49 46 46 44 39 35 34 32 29 32 38 43 48 52 55 56 57 61 66 70 74 80 89 97 107 120 132 142 155 167 174 176 178 182 184 179 171 165 164 166 169 170 169 167 166 168 172 176 180
293 279 243 223 224 234 230 215 210 233 249 267 293 302 313 326 330 327 327 325 314 304 315 326 337 352 0 10 32 56 64 63 65 69 73 72 64 55 49 45 43 42 40 36 35 36 35 35 39 44 49 54 58 60 61 65 70 75 79 83 89 95 101 108 115 121 128 135 141 146 151 154 153 151 151 153 157 161 162 162 162 163 167 173 179 185 190
281 278 251 233 230 229 217 202 204 237 257 272 286 291 301 320 329 328 328 327 321 309 311 323 334 349 1 13 31 51 62 64 63 62 65 70 69 63 58 53 47 43 41 37 37 41 42 40 40 41 44 49 55 59 61 65 71 76 80 84 88 92 95 98 101 105 109 113 118 124 129 133 136 140 145 149 151 153 156 161 166 172 179 184 189 194 199
271 269 250 238 232 223 213 209 216 241 261 272 282 287 297 315 327 329 330 333 333 322 308 317 335 353 9 19 31 44 55 65 68 63 60 62 62 59 55 51 44 37 35 34 36 41 45 45 45 42 40 43 50 56 60 64 68 73 79 84 87 91 95 98 100 103 106 109 113 116 120 125 129 134 140 145 150 155 162 169 174 179 183 189 194 199 203
262 257 246 239 229 215 208 212 225 250 267 269 267 277 299 316 327 332 334 338 341 336 318 321 342 1 12 16 18 27 42 57 64 61 58 57 54 50 47 44 39 33 30 31 37 44 46 45 46 45 42 42 45 50 53 55 58 64 72 80 86 91 96 100 106 110 114 117 120 122 126 131 136 141 147 154 158 162 166 170 175 179 183 190 195 200 205
257 254 249 246 234 216 210 216 231 256 271 267 258 266 295 314 325 334 339 343 347 349 345 344 354 1 7 8 5 3 15 39 48 47 47 50 51 48 44 41 37 32 27 28 35 42 45 43 41 40 37 36 39 44 46 47 49 53 60 70 81 89 94 99 106 113 118 122 125 128 133 140 145 150 156 161 164 166 169 174 180 184 188 192 197 201 207
252 251 250 250 242 227 218 221 230 243 256 261 258 261 281 307 323 333 340 347 354 4 20 26 15 4 4 10 11 6 14 35 41 34 31 37 46 48 44 40 35 31 28 27 30 39 45 45 40 35 30 28 28 30 39 47 51 52 55 62 74 84 90 94 97 102 107 110 113 117 125 134 141 148 155 161 167 172 176 180 186 190 194 199 204 210 216
248 248 247 248 244 235 228 227 228 230 241 259 262 254 260 290 315 326 334 346 359 15 32 39 31 13 5 13 20 22 31 44 47 41 34 37 46 50 47 40 35 32 28 24 25 35 43 45 42 37 34 31 27 26 33 43 49 53 59 65 72 79 86 91 93 95 98 102 104 110 119 129 138 148 157 165 173 179 184 189 195 200 206 212 218 223 227
249 249 245 243 244 244 239 232 225 222 230 250 259 250 250 267 290 301 308 328 2 22 30 36 35 20 9 18 32 40 44 48 53 58 58 52 51 52 50 44 39 38 33 27 27 36 42 44 44 43 40 37 36 37 40 44 46 51 60 71 78 85 90 94 98 101 106 110 114 121 129 138 147 157 167 175 182 189 195 201 207 212 217 223 229 235 239
246 247 243 238 241 246 243 232 223 222 228 242 254 254 252 256 267 278 281 284 339 23 26 31 34 28 16 12 24 45 54 49 48 59 66 63 57 56 55 50 47 46 43 38 37 41 44 45 46 46 43 42 43 46 47 48 49 52 57 66 75 85 92 98 105 111 117 122 128 134 143 154 165 177 187 194 199 206 213 219 222 226 230 233 237 240 244
242 246 245 240 238 240 237 228 224 224 228 235 245 251 252 251 253 256 257 253 258 16 26 20 16 18 23 19 17 32 59 59 51 59 67 67 63 60 58 55 53 52 51 49 47 47 46 46 49 51 51 48 48 50 51 52 53 55 58 62 67 73 79 85 92 98 105 111 118 128 138 146 154 166 176 181 188 195 200 200 198 193 191 194 202 211 219
243 249 249 241 235 234 234 229 224 223 225 229 235 241 246 245 242 241 243 244 246 270 337 354 353 358 16 24 20 27 61 79 76 75 74 72 69 65 61 58 56 54 53 54 55 54 52 49 49 55 59 58 55 53 53 52 53 56 58 60 62 63 64 65 66 67 71 79 88 97 104 108 112 116 122 127 131 132 133 133 132 131 130 132 133 137 146
242 245 243 236 232 234 237 234 228 224 223 226 230 235 238 238 237 238 240 240 241 249 268 289 314 332 345 2 20 36 67 92 99 93 83 77 75 71 66 63 61 57 53 53 56 58 59 57 52 52 55 60 63 64 63 59 56 56 55 55 57 59 60 62 65 68 70 74 77 80 82 82 81 82 84 87 92 100 105 107 106 106 104 99 96 97 99
241 241 240 238 238 240 243 242 235 228 225 226 230 235 238 238 238 240 242 240 238 240 247 253 259 276 291 293 289 289 178 150 132 111 94 86 81 75 71 68 65 61 56 54 55 58 61 63 62 60 57 57 61 66 68 66 64 63 61 58 57 60 64 68 71 73 75 75 73 72 71 69 65 64 67 71 75 82 88 88 85 81 76 72 71 72 71
240 239 238 241 243 243 243 244 240 235 231 231 233 235 237 238 239 240 240 239 238 239 243 247 251 255 257 259 260 250 220 200 178 141 113 101 91 84 80 75 70 65 60 56 55 57 61 63 65 65 65 63 63 65 68 69 70 72 74 73 73 74 73 72 70 70 73 74 73 75 76 75 71 69 71 74 78 84 88 88 84 77 69 66 67 68 68